Volver al catálogo

FENGYUN 1C DEB

LostSSO
NORAD 38794·DEBRIS·🇨🇳 China

Lanzado May 10, 1999 desde Taiyuan Satellite Launch Center

Loading…

Próximos Pases (próximas 24 horas)

TLE

ObsoletoSource: Space-Track

Época: Jul 25, 2022, 12:25 UTC

1 38794U 99025EUJ 22206.51796745  .00000538  00000-0  51965-3 0  9997
2 38794  99.1144 309.1626 0213382   9.5694 350.9424 13.74525039590651

Sigue FENGYUN 1C DEB en tiempo real con AllMySat

Download on the App Store